year,month,rank_EPRD,nstocks,ret_vw
1967,1,1,35,5.0679
1967,1,2,34,6.0402
1967,1,3,35,5.5919
1967,1,4,34,8.1273
1967,1,5,35,9.5480
1967,1,6,34,8.8818
1967,1,7,35,9.7951
1967,1,8,34,6.8309
1967,1,9,35,14.3756
1967,1,10,34,17.7100
1967,2,1,35,2.4540
1967,2,2,34,1.9341
1967,2,3,35,2.2445
1967,2,4,34,1.2403
1967,2,5,35,1.9455
1967,2,6,34,0.1025
1967,2,7,35,-2.6832
1967,2,8,34,1.1745
1967,2,9,35,-1.7678
1967,2,10,34,-1.1191
1967,3,1,35,4.2648
1967,3,2,34,5.2619
1967,3,3,35,2.0349
1967,3,4,34,4.0819
1967,3,5,35,5.2414
1967,3,6,34,2.2820
1967,3,7,35,7.7043
1967,3,8,34,3.9804
1967,3,9,35,5.7013
1967,3,10,34,5.6359
1967,4,1,35,5.1263
1967,4,2,34,5.7469
1967,4,3,35,3.1991
1967,4,4,34,2.4423
1967,4,5,35,4.5873
1967,4,6,34,7.1564
1967,4,7,35,3.0269
1967,4,8,34,0.1685
1967,4,9,35,9.8977
1967,4,10,34,2.1859
1967,5,1,35,-4.0677
1967,5,2,34,-4.1248
1967,5,3,35,-5.2044
1967,5,4,34,-3.2137
1967,5,5,35,-5.5172
1967,5,6,34,-4.2170
1967,5,7,35,-5.0418
1967,5,8,34,-5.0813
1967,5,9,35,-6.5409
1967,5,10,34,-0.9202
1967,6,1,35,2.2367
1967,6,2,34,3.7656
1967,6,3,35,0.5416
1967,6,4,34,3.5539
1967,6,5,35,3.5972
1967,6,6,34,3.7135
1967,6,7,35,2.0090
1967,6,8,34,4.2035
1967,6,9,35,-1.0773
1967,6,10,34,4.9421
1967,7,1,36,9.0130
1967,7,2,35,4.8401
1967,7,3,35,3.2343
1967,7,4,36,8.8886
1967,7,5,35,5.0580
1967,7,6,36,7.4162
1967,7,7,35,5.7575
1967,7,8,35,-3.3117
1967,7,9,35,9.5243
1967,7,10,35,7.3456
1967,8,1,36,-0.8179
1967,8,2,35,-1.8831
1967,8,3,35,-0.8446
1967,8,4,36,1.1816
1967,8,5,35,-0.7749
1967,8,6,36,-2.1541
1967,8,7,35,-1.0573
1967,8,8,35,-1.1114
1967,8,9,35,-0.0482
1967,8,10,35,3.4562
1967,9,1,36,2.7392
1967,9,2,35,6.7230
1967,9,3,35,2.2974
1967,9,4,35,4.7321
1967,9,5,35,2.9714
1967,9,6,36,1.2060
1967,9,7,35,1.5721
1967,9,8,35,2.2425
1967,9,9,35,4.6766
1967,9,10,35,1.7694
1967,10,1,36,-3.3277
1967,10,2,35,2.3222
1967,10,3,35,-1.7328
1967,10,4,35,-2.9729
1967,10,5,35,-1.7090
1967,10,6,36,-2.9383
1967,10,7,35,-6.3362
1967,10,8,35,-4.0723
1967,10,9,35,-6.3284
1967,10,10,35,-7.8440
1967,11,1,36,1.6340
1967,11,2,35,1.6853
1967,11,3,35,1.6615
1967,11,4,36,0.8063
1967,11,5,34,-3.6326
1967,11,6,36,-0.2573
1967,11,7,35,0.0445
1967,11,8,35,0.5279
1967,11,9,35,-1.6270
1967,11,10,35,-0.2983
1967,12,1,36,0.1018
1967,12,2,35,2.9418
1967,12,3,35,3.1949
1967,12,4,36,0.5247
1967,12,5,34,2.7095
1967,12,6,36,4.4416
1967,12,7,35,5.6536
1967,12,8,35,1.3678
1967,12,9,35,3.8698
1967,12,10,35,4.8358
1968,1,1,36,-6.3809
1968,1,2,35,-4.1579
1968,1,3,35,-2.3971
1968,1,4,36,-6.3737
1968,1,5,34,-4.7970
1968,1,6,36,-4.6484
1968,1,7,35,-9.2863
1968,1,8,35,0.9090
1968,1,9,35,-4.1688
1968,1,10,35,-3.4130
1968,2,1,36,-2.3936
1968,2,2,35,-1.6965
1968,2,3,35,-3.0304
1968,2,4,36,-4.1411
1968,2,5,34,-3.1199
1968,2,6,36,-3.1430
1968,2,7,35,-0.6910
1968,2,8,35,-2.6839
1968,2,9,35,-4.0328
1968,2,10,35,-5.4418
1968,3,1,36,1.6694
1968,3,2,35,3.6095
1968,3,3,35,1.1386
1968,3,4,36,0.8216
1968,3,5,34,-0.7474
1968,3,6,36,-0.5981
1968,3,7,35,-2.4518
1968,3,8,35,-0.0287
1968,3,9,35,-0.8783
1968,3,10,35,-2.8246
1968,4,1,36,11.7803
1968,4,2,35,8.7495
1968,4,3,35,9.2744
1968,4,4,36,10.7619
1968,4,5,34,9.7331
1968,4,6,36,4.8066
1968,4,7,35,9.6814
1968,4,8,35,3.7895
1968,4,9,35,9.2536
1968,4,10,35,10.4962
1968,5,1,36,1.2382
1968,5,2,35,1.6742
1968,5,3,35,2.5006
1968,5,4,36,0.3492
1968,5,5,34,-0.3541
1968,5,6,36,-1.0344
1968,5,7,35,5.7335
1968,5,8,35,-0.9144
1968,5,9,35,0.7039
1968,5,10,35,4.4190
1968,6,1,36,-0.2463
1968,6,2,35,-0.1649
1968,6,3,35,0.0480
1968,6,4,36,0.8235
1968,6,5,34,0.5649
1968,6,6,36,4.9942
1968,6,7,35,-0.0669
1968,6,8,35,3.0860
1968,6,9,35,-0.1026
1968,6,10,35,0.5466
1968,7,1,36,-3.0310
1968,7,2,35,-0.1323
1968,7,3,36,-1.4138
1968,7,4,36,-2.4741
1968,7,5,36,0.4833
1968,7,6,35,-3.3885
1968,7,7,36,-0.3070
1968,7,8,35,-5.2930
1968,7,9,36,-2.4369
1968,7,10,35,-5.4668
1968,8,1,36,1.7077
1968,8,2,35,0.8657
1968,8,3,36,2.5705
1968,8,4,36,0.8342
1968,8,5,36,3.2698
1968,8,6,35,2.7674
1968,8,7,36,1.8663
1968,8,8,35,2.2049
1968,8,9,36,1.3418
1968,8,10,35,0.1801
1968,9,1,36,1.0467
1968,9,2,35,1.7154
1968,9,3,36,5.8776
1968,9,4,36,5.0099
1968,9,5,36,2.5875
1968,9,6,35,6.6604
1968,9,7,36,4.3736
1968,9,8,35,7.8986
1968,9,9,36,6.9097
1968,9,10,35,7.6380
1968,10,1,36,1.6559
1968,10,2,35,-1.6940
1968,10,3,36,0.0310
1968,10,4,36,1.9102
1968,10,5,36,1.9386
1968,10,6,35,1.5711
1968,10,7,35,2.5052
1968,10,8,35,-1.7619
1968,10,9,36,3.9688
1968,10,10,35,1.8958
1968,11,1,36,5.8455
1968,11,2,35,6.9351
1968,11,3,36,4.0371
1968,11,4,36,2.8875
1968,11,5,36,5.1607
1968,11,6,35,6.7575
1968,11,7,35,5.9814
1968,11,8,35,7.3990
1968,11,9,36,-0.6757
1968,11,10,34,6.5499
1968,12,1,36,-3.5732
1968,12,2,35,-5.3520
1968,12,3,36,-6.1757
1968,12,4,36,-2.4427
1968,12,5,36,0.9067
1968,12,6,35,-2.0228
1968,12,7,36,-5.9183
1968,12,8,35,-4.1807
1968,12,9,36,-3.3608
1968,12,10,34,-0.8859
1969,1,1,36,-1.4173
1969,1,2,35,-3.3120
1969,1,3,36,-1.0156
1969,1,4,36,-3.1860
1969,1,5,36,-0.4379
1969,1,6,35,-2.1748
1969,1,7,36,1.6132
1969,1,8,35,-0.4596
1969,1,9,36,0.6595
1969,1,10,34,-1.5500
1969,2,1,36,-4.8032
1969,2,2,35,-2.4357
1969,2,3,36,-2.8285
1969,2,4,36,-5.5031
1969,2,5,36,-5.6385
1969,2,6,35,-4.6596
1969,2,7,36,-4.4697
1969,2,8,35,-8.5330
1969,2,9,36,-3.1378
1969,2,10,34,-7.0234
1969,3,1,36,4.5427
1969,3,2,35,5.7413
1969,3,3,36,5.8724
1969,3,4,36,3.6275
1969,3,5,36,3.2071
1969,3,6,35,0.5841
1969,3,7,36,0.2487
1969,3,8,35,4.2964
1969,3,9,36,4.2833
1969,3,10,34,2.1354
1969,4,1,36,2.7580
1969,4,2,35,2.7082
1969,4,3,36,2.3352
1969,4,4,36,-0.6149
1969,4,5,36,1.9588
1969,4,6,34,3.1849
1969,4,7,36,6.8581
1969,4,8,35,0.7099
1969,4,9,36,0.0087
1969,4,10,33,0.8931
1969,5,1,36,1.4907
1969,5,2,35,0.9574
1969,5,3,36,1.3504
1969,5,4,36,2.2877
1969,5,5,36,-1.6568
1969,5,6,34,-1.4921
1969,5,7,36,0.6636
1969,5,8,35,-1.1126
1969,5,9,36,1.3799
1969,5,10,33,-2.2683
1969,6,1,36,-5.2261
1969,6,2,35,-1.6866
1969,6,3,36,-5.9647
1969,6,4,36,-8.5102
1969,6,5,36,-8.4536
1969,6,6,35,-8.6095
1969,6,7,36,-5.4062
1969,6,8,35,-8.0420
1969,6,9,36,-5.4790
1969,6,10,33,-12.7122
1969,7,1,36,-5.0986
1969,7,2,35,-6.5466
1969,7,3,35,-7.8168
1969,7,4,37,-5.6839
1969,7,5,35,-6.9537
1969,7,6,35,-6.6547
1969,7,7,36,-10.2838
1969,7,8,35,-6.0452
1969,7,9,35,-4.6452
1969,7,10,35,-9.4835
1969,8,1,36,5.3845
1969,8,2,35,6.8211
1969,8,3,35,5.7563
1969,8,4,37,6.2614
1969,8,5,35,4.8232
1969,8,6,35,1.4190
1969,8,7,36,3.9838
1969,8,8,35,2.1728
1969,8,9,35,2.7582
1969,8,10,35,4.0481
1969,9,1,36,-2.0434
1969,9,2,35,-3.0035
1969,9,3,35,-3.3523
1969,9,4,37,-4.5542
1969,9,5,35,-3.2020
1969,9,6,35,2.1751
1969,9,7,35,-0.9242
1969,9,8,35,-2.1441
1969,9,9,34,-0.3706
1969,9,10,35,-1.9707
1969,10,1,36,3.5154
1969,10,2,35,5.0068
1969,10,3,35,4.8210
1969,10,4,37,4.3959
1969,10,5,35,3.0518
1969,10,6,35,2.3414
1969,10,7,35,8.0854
1969,10,8,35,3.2383
1969,10,9,34,4.3041
1969,10,10,35,4.7161
1969,11,1,36,-2.5710
1969,11,2,35,-2.3757
1969,11,3,35,-3.2347
1969,11,4,37,-4.3323
1969,11,5,35,-4.8029
1969,11,6,35,-4.6572
1969,11,7,36,-5.7541
1969,11,8,35,-1.0417
1969,11,9,35,-3.0988
1969,11,10,35,-5.2221
1969,12,1,36,0.6455
1969,12,2,35,0.5112
1969,12,3,35,-2.9816
1969,12,4,37,1.6960
1969,12,5,35,-1.3142
1969,12,6,35,-5.6243
1969,12,7,36,-3.7907
1969,12,8,35,-5.1813
1969,12,9,35,-2.6949
1969,12,10,35,-6.8640
1970,1,1,36,-7.6755
1970,1,2,35,-8.9957
1970,1,3,35,-10.8510
1970,1,4,37,-7.8003
1970,1,5,35,-10.6498
1970,1,6,35,-7.1795
1970,1,7,36,-9.7181
1970,1,8,35,-4.6636
1970,1,9,35,-4.6248
1970,1,10,35,-7.4024
1970,2,1,36,3.4884
1970,2,2,35,4.5083
1970,2,3,35,9.3264
1970,2,4,37,4.6603
1970,2,5,35,5.2824
1970,2,6,34,5.6565
1970,2,7,36,7.9160
1970,2,8,35,8.9971
1970,2,9,35,6.7780
1970,2,10,35,7.6777
1970,3,1,36,-0.8428
1970,3,2,35,-1.2369
1970,3,3,35,-0.6490
1970,3,4,37,0.9589
1970,3,5,35,0.0848
1970,3,6,34,1.2584
1970,3,7,36,-1.3636
1970,3,8,35,3.8075
1970,3,9,35,2.4347
1970,3,10,35,1.7086
1970,4,1,36,-7.3924
1970,4,2,35,-9.7299
1970,4,3,35,-11.4450
1970,4,4,37,-8.0298
1970,4,5,35,-8.2045
1970,4,6,34,-12.1254
1970,4,7,36,-12.9378
1970,4,8,35,-8.5745
1970,4,9,35,-8.3089
1970,4,10,35,-12.4781
1970,5,1,36,-2.2039
1970,5,2,35,-4.8391
1970,5,3,35,-8.4153
1970,5,4,37,-8.5394
1970,5,5,35,-2.7005
1970,5,6,34,-6.8401
1970,5,7,36,-7.6309
1970,5,8,35,-4.6680
1970,5,9,35,-8.2010
1970,5,10,35,-8.8392
1970,6,1,36,-1.3458
1970,6,2,35,-6.4870
1970,6,3,35,-4.7489
1970,6,4,37,-1.2293
1970,6,5,35,-1.1191
1970,6,6,34,-5.7363
1970,6,7,36,-8.2004
1970,6,8,34,-7.3523
1970,6,9,35,-8.6553
1970,6,10,35,-9.6070
1970,7,1,36,7.7154
1970,7,2,35,3.8299
1970,7,3,35,8.3784
1970,7,4,36,9.2880
1970,7,5,35,9.1136
1970,7,6,36,8.9313
1970,7,7,35,9.3736
1970,7,8,35,10.0621
1970,7,9,35,6.6848
1970,7,10,35,5.5587
1970,8,1,36,3.8152
1970,8,2,35,5.6742
1970,8,3,35,4.5309
1970,8,4,36,5.5119
1970,8,5,35,4.4699
1970,8,6,36,4.9997
1970,8,7,35,6.5660
1970,8,8,35,5.7247
1970,8,9,35,3.6189
1970,8,10,35,0.4746
1970,9,1,36,4.4737
1970,9,2,35,7.0130
1970,9,3,35,1.6747
1970,9,4,36,4.0500
1970,9,5,35,2.0422
1970,9,6,36,7.1635
1970,9,7,35,3.2491
1970,9,8,35,-0.2034
1970,9,9,35,1.6123
1970,9,10,34,6.8030
1970,10,1,36,2.5367
1970,10,2,35,0.1096
1970,10,3,35,-0.8702
1970,10,4,36,1.0865
1970,10,5,35,0.7328
1970,10,6,36,-6.5762
1970,10,7,35,-4.9865
1970,10,8,35,-3.9139
1970,10,9,35,-3.7157
1970,10,10,34,-9.5187
1970,11,1,36,4.8815
1970,11,2,35,4.8313
1970,11,3,35,6.9760
1970,11,4,36,3.9379
1970,11,5,35,3.1384
1970,11,6,36,4.2032
1970,11,7,35,5.2275
1970,11,8,35,7.2583
1970,11,9,34,2.5265
1970,11,10,34,2.7647
1970,12,1,36,4.0547
1970,12,2,35,4.7949
1970,12,3,35,6.0845
1970,12,4,36,6.3311
1970,12,5,35,8.5252
1970,12,6,36,8.5416
1970,12,7,34,7.4664
1970,12,8,35,6.3410
1970,12,9,34,9.4338
1970,12,10,34,6.6071
1971,1,1,36,1.1777
1971,1,2,35,4.1917
1971,1,3,35,3.4983
1971,1,4,36,2.2678
1971,1,5,35,2.7345
1971,1,6,36,10.8708
1971,1,7,34,8.8275
1971,1,8,34,5.9798
1971,1,9,34,4.3623
1971,1,10,34,7.4185
1971,2,1,36,3.8796
1971,2,2,35,3.4992
1971,2,3,35,1.0780
1971,2,4,35,4.1631
1971,2,5,34,3.1185
1971,2,6,36,0.8914
1971,2,7,34,-0.4833
1971,2,8,34,-3.7141
1971,2,9,34,1.3816
1971,2,10,34,0.2606
1971,3,1,36,4.2248
1971,3,2,35,4.5721
1971,3,3,35,4.9706
1971,3,4,35,2.3839
1971,3,5,34,1.6911
1971,3,6,36,7.9057
1971,3,7,34,2.8038
1971,3,8,34,1.7607
1971,3,9,34,2.5061
1971,3,10,34,3.8801
1971,4,1,36,3.5613
1971,4,2,35,3.2793
1971,4,3,35,5.0787
1971,4,4,35,5.6103
1971,4,5,34,5.9480
1971,4,6,36,5.2082
1971,4,7,34,5.4923
1971,4,8,34,4.9691
1971,4,9,34,5.3761
1971,4,10,34,2.7242
1971,5,1,36,-2.9853
1971,5,2,35,-6.4361
1971,5,3,35,-1.9721
1971,5,4,35,-5.4211
1971,5,5,34,-3.6486
1971,5,6,36,-3.3760
1971,5,7,34,-2.2657
1971,5,8,34,-5.5680
1971,5,9,34,-3.3398
1971,5,10,34,-4.1026
1971,6,1,36,2.3350
1971,6,2,35,-1.6185
1971,6,3,35,-0.8835
1971,6,4,35,1.1138
1971,6,5,33,-1.6423
1971,6,6,36,0.0293
1971,6,7,34,-3.9123
1971,6,8,34,-1.3445
1971,6,9,34,-3.1335
1971,6,10,34,-5.9727
1971,7,1,47,-2.8044
1971,7,2,46,-5.9191
1971,7,3,46,-2.6406
1971,7,4,46,-3.2873
1971,7,5,47,-4.1141
1971,7,6,47,-3.6815
1971,7,7,46,-2.8953
1971,7,8,46,-6.2411
1971,7,9,46,-4.3848
1971,7,10,48,-5.0580
1971,8,1,47,3.1345
1971,8,2,46,3.9480
1971,8,3,46,1.8064
1971,8,4,46,5.7381
1971,8,5,47,4.2106
1971,8,6,47,2.0742
1971,8,7,45,3.8440
1971,8,8,46,3.6016
1971,8,9,46,10.4673
1971,8,10,48,6.6070
1971,9,1,47,0.5857
1971,9,2,46,-0.2618
1971,9,3,46,-2.1280
1971,9,4,46,0.9581
1971,9,5,47,-1.2859
1971,9,6,47,-2.8430
1971,9,7,45,-1.3503
1971,9,8,46,-0.5986
1971,9,9,46,-1.1936
1971,9,10,46,-4.0786
1971,10,1,47,-1.9515
1971,10,2,46,-2.5880
1971,10,3,46,-4.2764
1971,10,4,46,-3.0258
1971,10,5,47,-6.6126
1971,10,6,47,-4.7838
1971,10,7,45,-6.8064
1971,10,8,46,-4.4376
1971,10,9,46,-6.6125
1971,10,10,46,-6.5779
1971,11,1,47,0.5421
1971,11,2,46,1.3425
1971,11,3,46,-0.1316
1971,11,4,46,1.4727
1971,11,5,47,-1.9455
1971,11,6,47,0.3251
1971,11,7,45,-2.2573
1971,11,8,46,0.0411
1971,11,9,46,0.4037
1971,11,10,46,-2.4309
1971,12,1,47,8.3115
1971,12,2,46,9.2045
1971,12,3,46,8.0901
1971,12,4,46,9.5252
1971,12,5,47,10.1217
1971,12,6,47,10.6742
1971,12,7,45,9.4899
1971,12,8,46,8.1674
1971,12,9,46,5.7341
1971,12,10,45,10.4937
1972,1,1,47,0.7427
1972,1,2,46,5.7388
1972,1,3,46,0.6438
1972,1,4,46,0.4442
1972,1,5,47,0.6071
1972,1,6,47,0.3170
1972,1,7,45,3.2522
1972,1,8,46,1.9198
1972,1,9,46,2.6633
1972,1,10,45,2.6979
1972,2,1,47,3.2492
1972,2,2,46,0.7583
1972,2,3,46,0.8954
1972,2,4,46,4.7096
1972,2,5,47,2.6867
1972,2,6,47,3.7961
1972,2,7,45,5.3330
1972,2,8,46,1.5083
1972,2,9,46,0.0549
1972,2,10,44,3.8051
1972,3,1,47,-0.7650
1972,3,2,46,2.4099
1972,3,3,46,-0.6181
1972,3,4,46,1.0708
1972,3,5,47,-1.7522
1972,3,6,47,-0.3732
1972,3,7,45,0.2215
1972,3,8,46,-1.3087
1972,3,9,46,4.4038
1972,3,10,44,-2.3301
1972,4,1,47,1.7269
1972,4,2,46,0.8340
1972,4,3,46,-0.3902
1972,4,4,46,0.0264
1972,4,5,47,-0.9448
1972,4,6,47,0.2338
1972,4,7,45,1.1782
1972,4,8,46,-0.3393
1972,4,9,46,-3.4401
1972,4,10,44,2.4241
1972,5,1,47,5.2375
1972,5,2,46,2.2579
1972,5,3,46,0.7782
1972,5,4,46,2.8372
1972,5,5,47,-0.6166
1972,5,6,47,-0.0517
1972,5,7,45,-1.0549
1972,5,8,46,0.9412
1972,5,9,46,-3.5559
1972,5,10,44,0.1599
1972,6,1,47,-0.1403
1972,6,2,46,-2.0134
1972,6,3,46,-4.1878
1972,6,4,46,-1.0714
1972,6,5,47,-3.7243
1972,6,6,47,-3.9809
1972,6,7,45,-4.6005
1972,6,8,46,-2.9846
1972,6,9,46,-3.5192
1972,6,10,44,-6.8155
1972,7,1,48,3.0666
1972,7,2,48,1.0306
1972,7,3,48,-0.4388
1972,7,4,47,-0.5681
1972,7,5,49,-0.8720
1972,7,6,49,-5.6179
1972,7,7,47,-0.3835
1972,7,8,48,-2.5527
1972,7,9,48,-1.0171
1972,7,10,48,-4.1084
1972,8,1,48,3.2628
1972,8,2,48,4.5766
1972,8,3,48,4.6084
1972,8,4,47,1.8705
1972,8,5,49,6.5457
1972,8,6,49,3.6305
1972,8,7,47,5.5812
1972,8,8,48,3.6337
1972,8,9,48,6.2608
1972,8,10,48,3.6133
1972,9,1,48,-0.1763
1972,9,2,48,-0.7393
1972,9,3,48,-0.7631
1972,9,4,47,2.4223
1972,9,5,49,-1.8265
1972,9,6,49,-4.2263
1972,9,7,47,3.2555
1972,9,8,48,-1.9781
1972,9,9,48,-1.2381
1972,9,10,48,-4.9596
1972,10,1,48,2.7180
1972,10,2,48,-0.5475
1972,10,3,48,2.3152
1972,10,4,47,1.8146
1972,10,5,49,-0.6860
1972,10,6,49,-2.2118
1972,10,7,47,2.3402
1972,10,8,48,0.7521
1972,10,9,48,-3.4194
1972,10,10,48,-0.5968
1972,11,1,48,3.6483
1972,11,2,48,3.8880
1972,11,3,48,6.3312
1972,11,4,47,4.5689
1972,11,5,49,8.8629
1972,11,6,49,11.1556
1972,11,7,47,7.1282
1972,11,8,48,8.1278
1972,11,9,48,9.4299
1972,11,10,48,9.8252
1972,12,1,48,3.1718
1972,12,2,48,1.5966
1972,12,3,48,0.8269
1972,12,4,47,1.9857
1972,12,5,49,-0.7038
1972,12,6,49,-1.8510
1972,12,7,47,1.8175
1972,12,8,48,-0.4193
1972,12,9,48,-1.4529
1972,12,10,48,-6.1160
1973,1,1,48,0.9742
1973,1,2,48,4.0442
1973,1,3,48,-5.1416
1973,1,4,47,-1.4509
1973,1,5,49,-6.5125
1973,1,6,49,-2.9734
1973,1,7,47,-1.4432
1973,1,8,48,-9.7232
1973,1,9,48,-4.3606
1973,1,10,48,-5.5319
1973,2,1,48,-3.5889
1973,2,2,48,-2.6113
1973,2,3,48,-3.8089
1973,2,4,47,-4.8400
1973,2,5,49,-4.0598
1973,2,6,49,-4.2569
1973,2,7,47,-4.5493
1973,2,8,48,-6.6634
1973,2,9,48,-3.2847
1973,2,10,47,-1.7327
1973,3,1,48,1.4990
1973,3,2,48,0.4322
1973,3,3,48,-3.8817
1973,3,4,47,-0.2422
1973,3,5,49,-1.3085
1973,3,6,49,-1.2158
1973,3,7,47,1.0618
1973,3,8,47,-3.5222
1973,3,9,48,0.6654
1973,3,10,47,1.1818
1973,4,1,48,-3.6693
1973,4,2,48,-4.3243
1973,4,3,48,-5.4459
1973,4,4,47,-3.2564
1973,4,5,49,-6.0306
1973,4,6,49,-3.0154
1973,4,7,47,0.2562
1973,4,8,47,-4.8020
1973,4,9,48,-2.8333
1973,4,10,47,-5.0010
1973,5,1,48,0.3665
1973,5,2,48,-2.3858
1973,5,3,48,1.9067
1973,5,4,47,-2.6483
1973,5,5,48,-1.4770
1973,5,6,49,-4.5104
1973,5,7,47,-0.9668
1973,5,8,48,-5.8788
1973,5,9,48,-3.9864
1973,5,10,47,-8.9087
1973,6,1,48,1.5181
1973,6,2,48,-0.5338
1973,6,3,48,-2.7456
1973,6,4,47,1.0410
1973,6,5,48,-3.8181
1973,6,6,49,-1.6641
1973,6,7,46,-0.7197
1973,6,8,48,-6.1448
1973,6,9,48,-1.5962
1973,6,10,47,-2.3089
1973,7,1,73,4.9925
1973,7,2,76,2.2721
1973,7,3,73,3.8751
1973,7,4,76,3.9565
1973,7,5,72,2.8424
1973,7,6,77,5.3712
1973,7,7,78,8.0932
1973,7,8,83,2.2067
1973,7,9,78,3.8112
1973,7,10,77,10.7179
1973,8,1,73,-4.6671
1973,8,2,76,-3.6741
1973,8,3,73,-1.7168
1973,8,4,76,-2.8233
1973,8,5,72,-1.9306
1973,8,6,77,-2.2579
1973,8,7,78,-3.4984
1973,8,8,83,-2.8718
1973,8,9,78,-3.2443
1973,8,10,77,-0.6491
1973,9,1,73,3.3107
1973,9,2,76,-2.1038
1973,9,3,73,6.0513
1973,9,4,76,7.1146
1973,9,5,73,3.2837
1973,9,6,77,9.3185
1973,9,7,78,12.6554
1973,9,8,83,9.8987
1973,9,9,78,7.9029
1973,9,10,77,8.0690
1973,10,1,73,1.5697
1973,10,2,76,2.5929
1973,10,3,73,0.5513
1973,10,4,76,-0.5600
1973,10,5,73,-1.0204
1973,10,6,77,2.6830
1973,10,7,78,-1.2137
1973,10,8,83,-4.6352
1973,10,9,78,-2.1342
1973,10,10,77,3.4806
1973,11,1,73,-8.0914
1973,11,2,76,-10.3811
1973,11,3,73,-13.5248
1973,11,4,76,-10.8685
1973,11,5,73,-13.5105
1973,11,6,77,-14.0974
1973,11,7,78,-13.3816
1973,11,8,83,-7.6519
1973,11,9,78,-16.0051
1973,11,10,77,-17.6541
1973,12,1,73,0.3028
1973,12,2,76,-0.3143
1973,12,3,73,1.4462
1973,12,4,76,4.2323
1973,12,5,73,1.6513
1973,12,6,77,5.2160
1973,12,7,78,6.2322
1973,12,8,83,5.0832
1973,12,9,77,-0.4304
1973,12,10,76,4.0107
1974,1,1,73,-3.6724
1974,1,2,76,-1.2390
1974,1,3,73,-0.0814
1974,1,4,76,-0.0568
1974,1,5,73,-0.2418
1974,1,6,77,3.1539
1974,1,7,78,2.5706
1974,1,8,83,0.9370
1974,1,9,77,8.0043
1974,1,10,76,9.0800
1974,2,1,73,-1.2198
1974,2,2,76,-1.0238
1974,2,3,73,1.0225
1974,2,4,76,-0.3784
1974,2,5,73,-0.0007
1974,2,6,77,1.4258
1974,2,7,78,0.5536
1974,2,8,82,4.7508
1974,2,9,76,1.2115
1974,2,10,76,2.2047
1974,3,1,73,-1.4437
1974,3,2,76,-2.5342
1974,3,3,73,-1.0798
1974,3,4,76,-3.0487
1974,3,5,73,-1.4289
1974,3,6,77,-1.9307
1974,3,7,78,-1.8575
1974,3,8,82,-3.9798
1974,3,9,76,-1.9515
1974,3,10,75,-2.5403
1974,4,1,73,-2.8714
1974,4,2,76,-3.0921
1974,4,3,73,-5.5225
1974,4,4,76,-5.3175
1974,4,5,73,-4.3551
1974,4,6,77,-3.7175
1974,4,7,78,-4.0306
1974,4,8,82,-4.8746
1974,4,9,75,-2.3348
1974,4,10,75,-4.6393
1974,5,1,73,-1.1200
1974,5,2,76,-2.8338
1974,5,3,73,-1.0732
1974,5,4,76,-2.6753
1974,5,5,73,-3.2742
1974,5,6,77,-6.1189
1974,5,7,77,-8.3604
1974,5,8,82,-2.9069
1974,5,9,74,-0.1145
1974,5,10,74,-8.6390
1974,6,1,73,-0.7656
1974,6,2,76,-1.6715
1974,6,3,73,-1.5309
1974,6,4,76,-1.2671
1974,6,5,73,-2.3236
1974,6,6,77,-1.1234
1974,6,7,77,0.6132
1974,6,8,82,-0.0491
1974,6,9,74,-1.8434
1974,6,10,74,-3.9698
1974,7,1,81,-12.5424
1974,7,2,83,-3.6108
1974,7,3,75,-7.7159
1974,7,4,83,-7.5118
1974,7,5,82,-8.5358
1974,7,6,91,-4.7129
1974,7,7,94,-1.2811
1974,7,8,90,-6.4340
1974,7,9,90,-6.2008
1974,7,10,88,-9.0068
1974,8,1,81,-9.2304
1974,8,2,83,-8.5527
1974,8,3,75,-8.2930
1974,8,4,82,-10.9743
1974,8,5,82,-9.1471
1974,8,6,90,-8.1498
1974,8,7,94,-7.8683
1974,8,8,90,-6.3227
1974,8,9,90,-2.2977
1974,8,10,86,-3.7275
1974,9,1,81,-16.3858
1974,9,2,83,-13.2834
1974,9,3,75,-10.4497
1974,9,4,82,-8.7982
1974,9,5,81,-13.5081
1974,9,6,90,-7.0246
1974,9,7,94,-8.7275
1974,9,8,90,-8.6625
1974,9,9,90,-6.5853
1974,9,10,85,-10.2606
1974,10,1,81,25.3921
1974,10,2,83,19.3145
1974,10,3,75,15.1377
1974,10,4,83,13.0523
1974,10,5,81,12.7887
1974,10,6,89,15.7850
1974,10,7,94,15.9356
1974,10,8,90,8.8183
1974,10,9,90,12.7742
1974,10,10,85,1.1506
1974,11,1,81,-4.0790
1974,11,2,83,-4.4902
1974,11,3,75,-6.9049
1974,11,4,83,-6.0281
1974,11,5,81,-3.5510
1974,11,6,89,-4.2911
1974,11,7,93,-1.5005
1974,11,8,89,-4.2976
1974,11,9,90,-4.5440
1974,11,10,86,-4.6421
1974,12,1,81,-3.1654
1974,12,2,83,-1.7282
1974,12,3,75,-3.3202
1974,12,4,83,-0.9020
1974,12,5,81,-2.7538
1974,12,6,89,-3.1974
1974,12,7,93,-0.8526
1974,12,8,89,-4.9022
1974,12,9,90,-0.1285
1974,12,10,86,-2.2196
1975,1,1,81,8.1005
1975,1,2,83,10.4246
1975,1,3,75,17.5210
1975,1,4,83,12.5211
1975,1,5,82,15.3259
1975,1,6,89,15.2008
1975,1,7,94,12.5782
1975,1,8,90,21.3043
1975,1,9,90,12.3736
1975,1,10,85,21.8998
1975,2,1,81,12.1082
1975,2,2,83,8.9897
1975,2,3,75,4.4307
1975,2,4,83,4.1388
1975,2,5,82,7.6608
1975,2,6,89,1.8711
1975,2,7,94,2.2434
1975,2,8,90,4.3107
1975,2,9,90,4.9621
1975,2,10,85,3.7500
1975,3,1,81,3.0216
1975,3,2,83,-0.5091
1975,3,3,75,0.5965
1975,3,4,83,3.8795
1975,3,5,82,5.3269
1975,3,6,89,3.5487
1975,3,7,94,3.1032
1975,3,8,90,7.4876
1975,3,9,90,1.2125
1975,3,10,84,6.2676
1975,4,1,81,3.2135
1975,4,2,83,4.4296
1975,4,3,75,3.3567
1975,4,4,83,4.9098
1975,4,5,82,8.1768
1975,4,6,89,6.3127
1975,4,7,94,8.3900
1975,4,8,90,5.5098
1975,4,9,90,2.3851
1975,4,10,83,4.3846
1975,5,1,81,6.2806
1975,5,2,83,6.4475
1975,5,3,75,6.8073
1975,5,4,83,6.3761
1975,5,5,82,3.4189
1975,5,6,89,6.1945
1975,5,7,94,5.4340
1975,5,8,90,4.4705
1975,5,9,90,2.4821
1975,5,10,83,2.3599
1975,6,1,81,3.7734
1975,6,2,83,3.0044
1975,6,3,74,6.2317
1975,6,4,83,6.3955
1975,6,5,82,4.2376
1975,6,6,89,6.2179
1975,6,7,94,4.7652
1975,6,8,90,8.7412
1975,6,9,89,5.6209
1975,6,10,84,8.5113
1975,7,1,84,-9.9252
1975,7,2,83,-8.6436
1975,7,3,88,-5.4187
1975,7,4,90,-6.6988
1975,7,5,89,-3.7038
1975,7,6,95,-3.9354
1975,7,7,99,-4.8632
1975,7,8,100,-5.4704
1975,7,9,93,-1.9281
1975,7,10,92,-4.5121
1975,8,1,84,-3.4425
1975,8,2,83,-1.2826
1975,8,3,88,-1.9667
1975,8,4,90,-0.2361
1975,8,5,89,-0.5018
1975,8,6,94,-0.7611
1975,8,7,98,-1.2767
1975,8,8,100,-1.8243
1975,8,9,92,-2.2870
1975,8,10,92,2.9011
1975,9,1,84,-3.8318
1975,9,2,83,-1.4561
1975,9,3,88,-2.4720
1975,9,4,90,-3.6640
1975,9,5,89,-3.7663
1975,9,6,94,-4.6895
1975,9,7,97,-3.6150
1975,9,8,100,-4.2744
1975,9,9,92,-1.5184
1975,9,10,92,-3.6793
1975,10,1,84,10.0152
1975,10,2,83,8.2469
1975,10,3,88,3.2123
1975,10,4,89,7.7706
1975,10,5,89,6.1078
1975,10,6,94,2.6048
1975,10,7,98,5.7071
1975,10,8,99,3.8035
1975,10,9,91,5.8371
1975,10,10,92,-0.8140
1975,11,1,84,3.9805
1975,11,2,83,3.9521
1975,11,3,88,1.1665
1975,11,4,89,3.7887
1975,11,5,89,3.8595
1975,11,6,94,2.2581
1975,11,7,97,-0.6424
1975,11,8,99,2.2778
1975,11,9,91,2.6592
1975,11,10,92,2.2268
1975,12,1,83,-4.0794
1975,12,2,83,-1.0126
1975,12,3,88,0.5863
1975,12,4,90,-2.3391
1975,12,5,88,-0.8708
1975,12,6,94,0.2478
1975,12,7,97,0.1198
1975,12,8,100,-0.7784
1975,12,9,90,0.7428
1975,12,10,92,0.8548
1976,1,1,82,10.4618
1976,1,2,82,10.3856
1976,1,3,88,10.4375
1976,1,4,86,14.2205
1976,1,5,85,10.7479
1976,1,6,92,14.6856
1976,1,7,94,14.0055
1976,1,8,99,20.3219
1976,1,9,89,11.8298
1976,1,10,90,19.3894
1976,2,1,83,-5.3459
1976,2,2,82,-1.3277
1976,2,3,88,0.0785
1976,2,4,86,0.8164
1976,2,5,86,-0.8184
1976,2,6,92,0.1678
1976,2,7,94,3.2117
1976,2,8,99,3.7035
1976,2,9,88,2.9555
1976,2,10,90,2.9668
1976,3,1,84,4.5738
1976,3,2,83,3.7247
1976,3,3,86,0.9121
1976,3,4,89,1.3294
1976,3,5,87,4.7243
1976,3,6,94,2.4900
1976,3,7,96,4.2848
1976,3,8,98,1.1815
1976,3,9,89,2.7746
1976,3,10,90,0.3674
1976,4,1,84,-2.7677
1976,4,2,82,-1.6387
1976,4,3,86,0.6660
1976,4,4,89,-1.1638
1976,4,5,87,-2.3255
1976,4,6,94,0.7510
1976,4,7,96,-0.3796
1976,4,8,98,0.0805
1976,4,9,89,1.0829
1976,4,10,90,0.0628
1976,5,1,84,-2.7069
1976,5,2,82,1.8498
1976,5,3,88,1.3289
1976,5,4,90,-1.2687
1976,5,5,88,-2.6559
1976,5,6,94,-0.5538
1976,5,7,97,1.3176
1976,5,8,100,-0.7079
1976,5,9,87,-1.3361
1976,5,10,89,0.2935
1976,6,1,84,5.4601
1976,6,2,83,5.9243
1976,6,3,88,4.7447
1976,6,4,89,1.9529
1976,6,5,88,2.3529
1976,6,6,93,5.2475
1976,6,7,97,2.5273
1976,6,8,99,4.3003
1976,6,9,87,3.8452
1976,6,10,88,7.3417
1976,7,1,90,-0.4601
1976,7,2,87,-0.4266
1976,7,3,96,0.4964
1976,7,4,90,-1.9431
1976,7,5,98,-0.9718
1976,7,6,110,-1.7884
1976,7,7,109,-0.8515
1976,7,8,99,-1.9423